Flag for Canada

Past Weather in Golden, British Columbia, Canada — Yesterday and Last 2 Weeks

Now
72 °F

Partly sunny.


Feels Like: 77 °F
Forecast: 72 / 47 °F
Wind: 2 mph from North

Location: Revelstoke

Current Time: Jul 10, 2020 at 4:01:23 pm

Latest Report: Jul 10, 2020 at 3:00 pm


Visibility: 9 mi

Pressure: 30.10 "Hg (27.44 "Hg at 800m altitude)

Humidity: 47%

Dew Point: 50 °F

Location of GoldenLocation

Past Weather in Golden — Graph

°F

Golden Temperature Yesterday

Maximum temperature yesterday: 59 °F (at 8:38 pm)
Minimum temperature yesterday: 54 °F (at 4:00 am)
Average temperature yesterday: 56 °F

High & Low Weather Summary for the Past Weeks

 TemperatureHumidityPressure
High73 °F (Jul 6, 4:00 pm)100% (Jun 26, 7:00 am)30.19 "Hg (Jun 26, 7:00 am)
Low48 °F (Jul 5, 4:00 am)43% (Jul 4, 7:00 pm)29.79 "Hg (Jul 2, 11:00 am)
Average57 °F87%29.99 "Hg
* Reported Jun 25 2:00 pm — Jul 10 2:00 pm, Golden. Weather by CustomWeather, © 2020

Note: Actual official high and low records may vary slightly from our data, if they occured in-between our weather recording intervals... More about our weather records

Golden Weather History for the Previous 24 Hours

Scroll right to see more
 ConditionsComfort  
Time TempWeatherWind HumidityBarometerVisibility
2:00 pm
Fri, Jul 10
66 °FScattered clouds.3 mph60%30.11 "Hg9 mi
1:00 pm64 °FPartly sunny.2 mph68%30.11 "Hg9 mi
12:00 pm61 °FSunny.8 mph77%30.12 "Hg9 mi
11:00 am63 °FPassing clouds.7 mph73%30.11 "Hg9 mi
10:00 am59 °FBroken clouds.3 mph88%30.11 "Hg9 mi
9:33 am57 °FBroken clouds.3 mph94%30.12 "Hg9 mi
9:00 am55 °FMostly cloudy.2 mph94%30.11 "Hg9 mi
8:00 am55 °FMostly cloudy.2 mph94%30.09 "Hg9 mi
7:00 am54 °FMostly cloudy.6 mph100%30.07 "Hg9 mi
6:33 am54 °FMore clouds than sun.2 mph100%30.06 "Hg8 mi
6:14 am54 °FMore clouds than sun.3 mph100%30.05 "Hg9 mi
5:26 am54 °FFog.5 mph100%30.04 "Hg3 mi
5:10 am54 °FFog.3 mph100%30.04 "Hg2 mi
4:38 am54 °FFog.5 mph100%30.03 "Hg2 mi
4:00 am55 °FFog.2 mph100%30.02 "Hg1 mi
3:38 am54 °FFog.7 mph100%30.01 "Hg1 mi
3:21 am55 °FLight rain. Fog.3 mph100%30.01 "Hg3 mi
3:02 am54 °FLight rain. Fog.3 mph100%30.02 "Hg2 mi
2:39 am54 °FLight rain. Fog.3 mph100%30.02 "Hg1 mi
2:24 am55 °FFog.No wind100%30.02 "Hg3 mi
2:00 am54 °FFog.No wind100%30.01 "Hg1 mi
1:19 am55 °FFog.No wind100%30.01 "Hg1 mi
12:54 am54 °FFog.2 mph100%30.01 "Hg1 mi
12:21 am54 °FFog.No wind100%30.01 "Hg2 mi
12:12 am55 °FFog.No wind100%30.01 "Hg3 mi
11:44 pm
Thu, Jul 9
55 °FFog.2 mph100%30.01 "Hg2 mi
11:33 pm55 °FFog.2 mph100%30.01 "Hg2 mi
11:24 pm55 °FMostly cloudy.No wind100%30.01 "Hg9 mi
11:00 pm55 °FOvercast.No wind100%30.00 "Hg8 mi
10:00 pm55 °FFog.2 mph100%29.99 "Hg3 mi
9:00 pm55 °FOvercast.3 mph94%29.98 "Hg9 mi
8:38 pm59 °FMore clouds than sun.No wind94%29.98 "Hg9 mi
8:22 pm57 °FMostly cloudy.No wind94%29.98 "Hg9 mi
7:41 pm55 °FLight rain. Cloudy.No wind100%29.98 "Hg9 mi
7:00 pm57 °FLight rain. Overcast.No wind94%29.98 "Hg9 mi
6:00 pm55 °FLight rain. More clouds than sun.5 mph100%29.98 "Hg9 mi
5:00 pm57 °FLight rain. Mostly cloudy.3 mph94%29.98 "Hg9 mi
4:00 pm55 °FLight rain. Mostly cloudy.5 mph100%29.98 "Hg9 mi
Weather by CustomWeather, © 2020

See weather overview